Weather Service Report


995 
ASUS41 KCLE 250810
RWRCLE
OHIO REGIONAL WEATHER ROUNDUP
NATIONAL WEATHER SERVICE WILMINGTON, OH
400 AM EDT SAT OCT 25 2014

NOTE: "FAIR" INDICATES FEW OR NO CLOUDS BELOW 12,000 FEET WITH NO
SIGNIFICANT WEATHER AND/OR OBSTRUCTIONS TO VISIBILITY.

OHZ001>008-015>018-024>027-034-035-043-044-250900-
   NORTHWEST OHIO
  
CITY           SKY/WX    TMP DP  RH WIND       PRES   REMARKS
DEFIANCE       MOCLDY    49  47  93 SW5       29.94F FOG              
FINDLAY        MOCLDY    49  46  90 S5        29.95F                  
TOLEDO EXPRESS MOCLDY    49  47  93 SW7       29.92F FOG              
TOLEDO METCALF MOCLDY    48  44  86 SW6       29.94F FOG              
LIMA           MOCLDY    52  46  80 SW7       29.97S                  
$$
 
OHZ009>014-019>023-028>033-038-089-250900-
   NORTHEAST OHIO
  
CITY           SKY/WX    TMP DP  RH WIND       PRES   REMARKS
CLE-HOPKINS    MOCLDY    50  41  71 S3        29.96F                  
CLE-LAKEFRONT  PTCLDY    54  42  64 S8        29.93F                  
CUY CO. ARPT   NOT AVBL                                               
LORAIN-ELYRIA  PTCLDY    47  41  80 SW7       29.95F                  
ASHTABULA      CLOUDY    50  43  77 SW3       29.94F                  
AKRON-CANTON   PTCLDY    44  37  76 S5        29.96F                  
WOOSTER        PTCLDY    47  39  74 SW5       29.97F                  
MANSFIELD      CLEAR     49  42  77 SW7       29.97F                  
YOUNGSTOWN     PTCLDY    47  40  76 SW3       29.96F                  
$$
 
OHZ042-051>053-060>062-070>072-077>081-250900-
  SOUTHWEST OHIO
  
CITY           SKY/WX    TMP DP  RH WIND       PRES   REMARKS
CINC-COVINGTON MOCLDY    47  42  83 S5        30.03S                  
CINC-LUNKEN    CLEAR     41  41 100 CALM      30.04F FOG              
HAMILTON       PTCLDY    41  40  96 CALM      30.03F FOG              
DAYTON         CLOUDY    52  46  80 SW9       30.00F                  
WRIGHT-PAT AFB PTCLDY    47  42  83 SE2       30.00F                  
DAYTON GENERAL PTCLDY    50  43  77 S5        30.00F                  
WILMINGTON     CLEAR     45  39  79 SW6       30.01F                  
$$

OHZ036-037-039>041-045>050-054>059-063>069-073>076-082>088-250900-
  CENTRAL AND SOUTHEAST OHIO
  
CITY           SKY/WX    TMP DP  RH WIND       PRES   REMARKS
COLUMBUS       MOCLDY    46  38  73 CALM      30.00F                  
OSU AIRPORT    PTCLDY    44  38  79 SW3       29.99F                  
BOLTON FIELD   PTCLDY    44  39  82 SW6       30.00F                  
RICKENBACK AFB PTCLDY    43  38  83 S3        30.00F                  
NEWARK         PTCLDY    38  35  89 CALM      29.99F FOG              
MARION         PTCLDY    48  41  76 SW6       29.98F                  
LANCASTER      PTCLDY    39  36  89 SE5       30.00F                  
ZANESVILLE     CLEAR     39  36  89 CALM      30.00F                  
NEW PHILLY     CLEAR     40  38  93 SE3       29.99F                  
$$

Return to Home page


Western Regional Climate Center, wrcc@dri.edu